When you browse on this site, cookies collect data to enhance your experience and personalize the content and advertising you see.
Visit our Privacy Policy to learn more. By continuing to use the site, you agree to this use of cookies and data.
  • In France
  • List of Countries
  • For 7 days
  • Water Temperature
  • Satellite Maps
  • Weather Map
  • Weather Widgets
  • user-avatar
    Login

    Hourly Weather Kotwasice

    Today, 17 December, Monday

    Time Temperature Precipitation Wind Pressure Humidity
    00:00 -5°C° 0 mm 3 mps 749 mmHg 83%
    01:00 -5°C° 0 mm 3 mps 749 mmHg 83%
    02:00 -5°C° 0 mm 3 mps 749 mmHg 82%
    03:00 -5°C° 0 mm 3 mps 749 mmHg 82%
    04:00 -4°C° 0 mm 3 mps 749 mmHg 81%
    05:00 -3°C° 0 mm 2 mps 749 mmHg 81%
    06:00 -3°C° 0 mm 2 mps 749 mmHg 82%
    07:00 -3°C° 0 mm 2 mps 750 mmHg 83%
    08:00 -3°C° 0 mm 2 mps 750 mmHg 82%
    09:00 -3°C° 0 mm 2 mps 750 mmHg 81%
    10:00 -3°C° 0 mm 2 mps 751 mmHg 80%
    11:00 -3°C° 0 mm 2 mps 751 mmHg 79%
    12:00 0°C° 0 mm 1 mps 751 mmHg 78%
    13:00 0°C° 0 mm 1 mps 751 mmHg 77%
    14:00 0°C° 0 mm 1 mps 752 mmHg 80%
    15:00 -1°C° 0 mm 1 mps 752 mmHg 83%
    16:00 -1°C° 0 mm 1 mps 752 mmHg 86%
    17:00 -1°C° 0 mm 1 mps 753 mmHg 87%
    18:00 -2°C° 0 mm 1 mps 753 mmHg 87%
    19:00 -2°C° 0 mm 1 mps 754 mmHg 88%
    20:00 -2°C° 0 mm 1 mps 754 mmHg 89%
    21:00 -2°C° 0 mm 1 mps 754 mmHg 90%
    22:00 -2°C° 0 mm 1 mps 755 mmHg 91%
    23:00 -2°C° 0 mm 1 mps 755 mmHg 91%

    Tomorrow, 18 December, Tuesday

    Time Temperature Precipitation Wind Pressure Humidity
    00:00 -2°C° 0 mm 1 mps 755 mmHg 91%
    01:00 -2°C° 0 mm 1 mps 755 mmHg 92%
    02:00 -2°C° 0 mm 1 mps 755 mmHg 92%
    03:00 -1°C° 0 mm 1 mps 755 mmHg 93%
    04:00 -1°C° 0 mm 1 mps 755 mmHg 93%
    05:00 -1°C° 0 mm 1 mps 755 mmHg 93%
    06:00 -1°C° 0 mm 1 mps 756 mmHg 93%
    07:00 0°C° 0 mm 1 mps 756 mmHg 93%
    08:00 -2°C° 0 mm 2 mps 756 mmHg 93%
    09:00 -1°C° 0 mm 2 mps 756 mmHg 92%
    10:00 -1°C° 0 mm 2 mps 756 mmHg 91%
    11:00 -1°C° 0 mm 2 mps 756 mmHg 91%
    12:00 +1°C° 0 mm 2 mps 756 mmHg 91%
    13:00 +1°C° 0 mm 2 mps 756 mmHg 91%
    14:00 +1°C° 0 mm 2 mps 755 mmHg 92%
    15:00 -1°C° 0 mm 2 mps 755 mmHg 92%
    16:00 -1°C° 0 mm 2 mps 755 mmHg 93%
    17:00 -1°C° 0 mm 2 mps 755 mmHg 93%
    18:00 -1°C° 0 mm 2 mps 755 mmHg 92%
    19:00 -2°C° 0 mm 2 mps 755 mmHg 92%
    20:00 -1°C° 0 mm 2 mps 755 mmHg 92%
    21:00 -1°C° 0 mm 2 mps 755 mmHg 91%
    22:00 -1°C° 0 mm 2 mps 755 mmHg 91%
    23:00 -1°C° 0 mm 2 mps 755 mmHg 91%

    Day after tomorrow, 19 December, Wednesday

    Time Temperature Precipitation Wind Pressure Humidity
    00:00 -2°C° 0 mm 2 mps 755 mmHg 91%
    01:00 -2°C° 0 mm 3 mps 755 mmHg 91%
    02:00 -2°C° 0 mm 3 mps 755 mmHg 92%
    03:00 -2°C° 0 mm 3 mps 754 mmHg 92%
    04:00 -2°C° 0 mm 3 mps 754 mmHg 93%
    05:00 -4°C° 0 mm 3 mps 754 mmHg 92%
    06:00 -4°C° 0 mm 4 mps 754 mmHg 92%
    07:00 -4°C° 0 mm 4 mps 754 mmHg 91%
    08:00 -4°C° 0 mm 4 mps 754 mmHg 88%
    09:00 -5°C° 0 mm 5 mps 754 mmHg 85%
    10:00 -5°C° 0 mm 5 mps 754 mmHg 82%
    11:00 -4°C° 0 mm 5 mps 753 mmHg 80%
    12:00 -4°C° 0 mm 5 mps 753 mmHg 78%
    13:00 -2°C° 0 mm 5 mps 753 mmHg 76%
    14:00 -4°C° 0 mm 5 mps 752 mmHg 78%
    15:00 -4°C° 0 mm 5 mps 752 mmHg 79%
    16:00 -5°C° 0 mm 5 mps 752 mmHg 81%
    17:00 -5°C° 0 mm 5 mps 752 mmHg 81%
    18:00 -5°C° 0 mm 5 mps 752 mmHg 82%
    19:00 -5°C° 0 mm 5 mps 752 mmHg 82%
    20:00 -5°C° 0 mm 5 mps 752 mmHg 82%
    21:00 -5°C° 0 mm 5 mps 752 mmHg 82%
    22:00 -5°C° 0 mm 5 mps 751 mmHg 82%
    23:00 -5°C° 0 mm 5 mps 751 mmHg 82%

    20 December, Thursday

    Time Temperature Precipitation Wind Pressure Humidity
    00:00 -5°C° 0 mm 5 mps 751 mmHg 82%
    01:00 -5°C° 0 mm 5 mps 751 mmHg 83%
    02:00 -5°C° 0 mm 5 mps 751 mmHg 82%
    03:00 -5°C° 0 mm 5 mps 751 mmHg 82%
    04:00 -5°C° 0 mm 5 mps 750 mmHg 82%
    05:00 -4°C° 0 mm 4 mps 750 mmHg 82%
    06:00 -4°C° 0 mm 4 mps 750 mmHg 81%
    07:00 -4°C° 0 mm 4 mps 750 mmHg 81%
    08:00 -4°C° 0 mm 4 mps 751 mmHg 80%
    09:00 -3°C° 0 mm 4 mps 751 mmHg 79%
    10:00 -3°C° 0 mm 4 mps 751 mmHg 78%
    11:00 -3°C° 0 mm 4 mps 750 mmHg 77%
    12:00 -2°C° 0 mm 3 mps 750 mmHg 77%
    13:00 -1°C° 0 mm 3 mps 750 mmHg 76%
    14:00 -2°C° 0 mm 3 mps 750 mmHg 78%
    15:00 -2°C° 0 mm 3 mps 750 mmHg 80%
    16:00 -2°C° 0 mm 3 mps 750 mmHg 82%
    17:00 -4°C° 0 mm 3 mps 750 mmHg 82%
    18:00 -4°C° 0 mm 3 mps 750 mmHg 83%
    19:00 -4°C° 0 mm 3 mps 750 mmHg 84%
    20:00 -3°C° 0 mm 2 mps 750 mmHg 85%
    21:00 -3°C° 0 mm 2 mps 750 mmHg 85%
    22:00 -3°C° 0 mm 2 mps 750 mmHg 86%
    23:00 -3°C° 0 mm 2 mps 750 mmHg 86%

    21 December, Friday

    Time Temperature Precipitation Wind Pressure Humidity
    00:00 -3°C° 0 mm 2 mps 750 mmHg 87%
    01:00 -3°C° 0 mm 2 mps 750 mmHg 87%
    02:00 -3°C° 0.1 mm 2 mps 749 mmHg 89%
    03:00 -1°C° 0.1 mm 1 mps 749 mmHg 90%
    04:00 -1°C° 0.1 mm 1 mps 749 mmHg 91%
    05:00 -1°C° 0.2 mm 1 mps 749 mmHg 92%
    06:00 -1°C° 0.2 mm 1 mps 749 mmHg 93%
    07:00 -1°C° 0.2 mm 1 mps 749 mmHg 95%
    08:00 0°C° 0.2 mm 1 mps 749 mmHg 95%
    09:00 0°C° 0.2 mm 1 mps 749 mmHg 94%
    10:00 0°C° 0.2 mm 1 mps 749 mmHg 94%
    11:00 0°C° 0.1 mm 1 mps 749 mmHg 94%
    12:00 0°C° 0.1 mm 1 mps 749 mmHg 94%
    13:00 +1°C° 0.1 mm 1 mps 749 mmHg 93%
    14:00 0°C° 0 mm 1 mps 749 mmHg 94%
    15:00 0°C° 0 mm 1 mps 749 mmHg 95%
    16:00 0°C° 0 mm 1 mps 749 mmHg 95%
    17:00 0°C° 0 mm 1 mps 749 mmHg 95%
    18:00 0°C° 0 mm 1 mps 749 mmHg 95%
    19:00 0°C° 0 mm 1 mps 749 mmHg 95%
    20:00 0°C° 0 mm 1 mps 749 mmHg 95%
    21:00 0°C° 0 mm 1 mps 749 mmHg 95%
    22:00 0°C° 0 mm 1 mps 749 mmHg 95%
    23:00 -2°C° 0 mm 2 mps 749 mmHg 95%

    22 December, Saturday

    Time Temperature Precipitation Wind Pressure Humidity
    00:00 -2°C° 0 mm 2 mps 748 mmHg 95%
    01:00 -2°C° 0 mm 2 mps 748 mmHg 95%
    02:00 -2°C° 0 mm 2 mps 748 mmHg 94%
    03:00 -2°C° 0 mm 2 mps 748 mmHg 94%
    04:00 -2°C° 0 mm 2 mps 748 mmHg 94%
    05:00 -2°C° 0 mm 2 mps 748 mmHg 94%
    06:00 -2°C° 0 mm 2 mps 748 mmHg 94%
    07:00 -2°C° 0 mm 3 mps 748 mmHg 94%
    08:00 -1°C° 0 mm 3 mps 748 mmHg 94%
    09:00 -1°C° 0 mm 3 mps 748 mmHg 94%
    10:00 -1°C° 0 mm 3 mps 748 mmHg 93%
    11:00 -1°C° 0 mm 3 mps 748 mmHg 94%
    12:00 -1°C° 0 mm 2 mps 748 mmHg 95%
    13:00 +1°C° 0 mm 2 mps 748 mmHg 95%
    14:00 -1°C° 0 mm 2 mps 748 mmHg 95%
    15:00 -1°C° 0 mm 2 mps 749 mmHg 95%
    16:00 -1°C° 0 mm 2 mps 749 mmHg 95%
    17:00 -1°C° 0 mm 2 mps 750 mmHg 95%
    18:00 -1°C° 0 mm 2 mps 750 mmHg 95%
    19:00 +1°C° 0 mm 1 mps 751 mmHg 95%
    20:00 +1°C° 0 mm 1 mps 751 mmHg 95%
    21:00 +1°C° 0 mm 1 mps 751 mmHg 95%
    22:00 +1°C° 0 mm 1 mps 752 mmHg 95%
    23:00 +1°C° 0 mm 1 mps 752 mmHg 95%
    Show more